Overview Statistics Trail Chart Weather Telemetry Raw packets
 

This is the latest recevied weather packets stored in our database for station/object IW9CSJ-13. If no packets are shown the sender has not sent any weather packets the latest 10 day(s).

<< 8 9 10 11 12 >>
Time Temp. Humidity Pressure Rain* Wind** Luminosity Snow
1787759720 28.89° C 75% 1016.4 hPa 0 mm - - -
1787759420 28.89° C 75% 1016.3 hPa 0 mm - - -
1787759120 28.89° C 75% 1016.3 hPa 0 mm - - -
1787758521 28.89° C 75% 1016.2 hPa 0 mm - - -
1787757920 29.44° C 75% 1016.4 hPa 0 mm - - -
1787756420 29.44° C 74% 1016.4 hPa 0 mm - - -
1787756121 29.44° C 73% 1016.4 hPa 0 mm - - -
1787755220 30° C 71% 1016.5 hPa 0 mm - - -
1787754321 30° C 70% 1016.6 hPa 0 mm - - -
1787743520 32.22° C 54% 1017.5 hPa 0 mm - - -
1787742920 32.78° C 46% 1017.5 hPa 0 mm - - -
1787742620 32.78° C 45% 1017.4 hPa 0 mm - - -
1787742321 32.78° C 45% 1017.5 hPa 0 mm - - -
1787742021 32.78° C 45% 1017.5 hPa 0 mm - - -
1787741720 33.33° C 45% 1017.5 hPa 0 mm - - -
1787741120 33.33° C 46% 1017.5 hPa 0 mm - - -
1787740219 32.22° C 48% 1017.6 hPa 0 mm - - -
1787739620 32.22° C 49% 1017.8 hPa 0 mm - - -
1787738720 32.22° C 49% 1017.8 hPa 0 mm - - -
1787738120 32.22° C 50% 1017.9 hPa 0 mm - - -
1787735120 32.22° C 55% 1017.7 hPa 0 mm - - -
1787733921 31.67° C 57% 1017.5 hPa 0 mm - - -
1787733320 31.67° C 60% 1017.5 hPa 0 mm - - -
1787733021 31.11° C 61% 1017.5 hPa 0 mm - - -
1787732721 31.11° C 59% 1017.5 hPa 0 mm - - -

* Rain latest hour (hover to see other rain measurements)
** Current wind speed in m/s (hover to see current wind gust speed)